CZ-6A DEB, 56637

Orbit data source: Space-Track

CZ-6A DEB, 56637 is space debris in SSO originally from a launch on Fri, 11 Nov 2022 UTC launched from the Taiyaun Space Center, China (TSC). Debris objects in space refer to the collection of defunct objects orbiting the Earth. Examples of debris include non-operational satellites, rocket bodies, and fragments generated from explosions, collisions, or faulty payload assembly.

Loading next visibility...
Identifier
56637, 2022-151AFM
Orbit
SSO
Country
Flag of CNCN / PRC
Related business
Manufacturer
SAST
Mission
Spacecraft
Bus & Motor
Unknown
Mass
Unknown
Launch date (UTC)
2022-11-11 (4 years ago)
Launch vehicle
Unknown
Launch site
Taiyaun Space Center, China (TSC)
Object type
Payload
Rocket body
Debris
Shape & HBR
Unknown shape, 0.1 m
Radar Cross Section
Medium (>0.1 m² and <1 m²)

Expand to show TLE details & history
Last TLE update: 3 days ago

TLE from 3 days ago
0 CZ-6A DEB
1 56637U 22151AFM 26170.19522270  .00004986  00000-0  99991-3 0  9999
2 56637  98.8599 259.7311 0106683   2.4605 357.7095 14.58657152177416
Epoch: 2026-06-19T04:41Z
TLE epoch observation values (Epoch: 2026-06-19T04:41:07.241Z)
Latitude
-0.00003°
Longitude
-77.97675°
Altitude
625.037 km
Speed
7.586 km/s
True Right ascension
17h 18m 55s
True Declination
0° 00' 00"
Sunlit
Object was in full shadow at epoch
Visualization orbit readout
Latitude
Unknown
Longitude
Unknown
Altitude
Unknown
Speed
Unknown
Apparent Right ascension
Unknown
Apparent Declination
Unknown
Sunlit
N/A
Visualization observer readout
Local Sidereal Time
21:32:35
Azimuth
Unknown
Elevation
Unknown
Doppler factor
Unknown
Orbital elements
Apogee altitude
770.082 km
Perigee altitude
619.173 km
Semi-major axis
7,072.764 km
Eccentricity
0.01067
Inclination
98.8599°
RAAN
259.7311°
Arg. of periapsis
2.4605°
True anomaly
357.65998°
Mean anomaly
357.7095°
Eccentric anomaly
357.68481°
Mean motion
3.64888 °/min
Orbital period
98.66 mins
BSTAR
0.00099991
Loading maneuver chart data...
Computing Atmospheric mass density...
Loading historical data...
Loading historical data...
Loading historical data...
Loading historical data...
Loading historical data...
Loading historical data...
Loading historical data...

Documentation

Showing up to 5 results
|